Home   Weather   Calw   Past weeks

Flag for Germany Past Weather in Calw, Baden-Württemberg, Germany — Yesterday and Last 2 Weeks

Now
37 °F

Light rain. Mostly cloudy.


Feels Like: 33 °F
Forecast: 35 / 43 °F
Wind: 6 mph from Northeast

Location: Stuttgart-Echterdingen

Current Time: Apr 26, 2017 at 2:34:52 am

Latest Report: Apr 26, 2017 at 2:20 am


Visibility: N/A

Pressure: 29.80 "Hg

Humidity: 93%

Dew Point: 36 °F

Location of CalwLocation

Past Weather in Calw — Graph

°F

Calw Temperature Yesterday

Maximum temperature yesterday: 57 °F (at 12:50 pm)
Minimum temperature yesterday: 39 °F (at 8:20 pm)
Average temperature yesterday: 47 °F

High & Low Weather Summary for the Past Weeks

 TemperatureHumidityPressure
High66 °F (Apr 12, 3:20 pm)100% (Apr 18, 9:20 pm)30.54 "Hg (Apr 18, 9:20 pm)
Low27 °F (Apr 20, 5:20 am)27% (Apr 21, 4:50 pm)29.74 "Hg (Apr 25, 2:20 am)
Average46 °F66%30.13 "Hg
* Reported Apr 11 1:20 am — Apr 26 1:20 am, Calw, Weather by CustomWeather, © 2017

Note: Actual official high and low records may vary slightly from our data, if they occured in-between our weather recording intervals... More about our weather records

Advertising

Calw Weather History for the Previous 24 Hours

Scroll right to see more
 ConditionsComfort  
Time TempWeatherWind HumidityBarometerVisibility
1:20 am
Wed, Apr 26
37 °FLight rain. Mostly cloudy.8 mph93%29.80 "HgN/A
12:50 am39 °FLight rain. Mostly cloudy.9 mph87%29.80 "HgN/A
12:20 am39 °FLight rain. Mostly cloudy.6 mph93%29.80 "HgN/A
11:50 pm
Tue, Apr 25
39 °FLight rain. Mostly cloudy.3 mph87%29.80 "HgN/A
11:20 pm39 °FLight rain. Mostly cloudy.2 mph93%29.80 "HgN/A
10:50 pm39 °FLight rain. Mostly cloudy.3 mph87%29.80 "HgN/A
10:20 pm39 °FLight rain. Mostly cloudy.2 mph87%29.80 "HgN/A
9:50 pm39 °FLight rain. Mostly cloudy.2 mph87%29.80 "HgN/A
9:20 pm39 °FLight rain. Partly cloudy.6 mph87%29.80 "HgN/A
8:50 pm39 °FLight rain. Passing clouds.8 mph87%29.80 "HgN/A
8:20 pm39 °FLight rain. Broken clouds.12 mph93%29.80 "HgN/A
7:50 pm41 °FLight rain. Broken clouds.10 mph87%29.80 "HgN/A
7:20 pm43 °FRain. Broken clouds.9 mph87%29.80 "HgN/A
6:50 pm43 °FLight rain. Partly sunny.3 mph93%29.77 "HgN/A
6:20 pm43 °FRain. Partly sunny.5 mph93%29.77 "Hg6 mi
5:50 pm45 °FLight rain. Partly sunny.8 mph87%29.77 "HgN/A
4:50 pm45 °FLight rain. Partly sunny.15 mph87%29.77 "HgN/A
4:20 pm46 °FLight rain. Broken clouds.16 mph87%29.77 "HgN/A
3:50 pm48 °FMore clouds than sun.15 mph71%29.77 "HgN/A
3:20 pm52 °FPartly sunny.18 mph62%29.74 "HgN/A
2:50 pm54 °FPartly sunny.17 mph54%29.74 "HgN/A
2:20 pm55 °FPartly sunny.16 mph51%29.74 "HgN/A
1:50 pm57 °FBroken clouds.15 mph48%29.74 "HgN/A
1:20 pm57 °FBroken clouds.15 mph51%29.74 "HgN/A
12:50 pm57 °FBroken clouds.16 mph44%29.74 "HgN/A
12:20 pm55 °FBroken clouds.12 mph51%29.74 "HgN/A
11:50 am54 °FBroken clouds.9 mph51%29.77 "HgN/A
11:20 am54 °FPartly sunny.9 mph51%29.77 "HgN/A
10:50 am54 °FPartly sunny.6 mph54%29.77 "HgN/A
10:20 am52 °FPassing clouds.5 mph54%29.74 "HgN/A
9:50 am52 °FPassing clouds.7 mph54%29.77 "HgN/A
9:20 am52 °FPassing clouds.5 mph54%29.74 "HgN/A
8:50 am50 °FPassing clouds.5 mph58%29.77 "HgN/A
8:20 am50 °FPassing clouds.5 mph58%29.74 "HgN/A
7:50 am48 °FPassing clouds.3 mph62%29.74 "HgN/A
7:20 am46 °FSunny.1 mph66%29.74 "Hg10 mi
6:50 am45 °FSunny.2 mph71%29.74 "Hg10 mi
5:50 am43 °FClear.2 mph76%29.74 "Hg10 mi
4:20 am45 °FClear.5 mph71%29.74 "Hg10 mi
3:50 am41 °FClear.2 mph81%29.74 "Hg10 mi
3:20 am45 °FClear.2 mph71%29.74 "Hg10 mi
2:50 am43 °FPassing clouds.5 mph76%29.74 "HgN/A
2:20 am45 °FClear.2 mph71%29.74 "Hg10 mi
Weather by CustomWeather, © 2017

See weather overviewHow to use our weather pages